Wind_Speed
14 14 14 15 16 16 15 15 14 14 14 14 14 13 13 12 11 11 10 10 9 9 9 8 8 8 8 8 8 8 8 8 8 8 7 7 7 7 6 6 5 6 5 5 5 6 6 6 6
13 13 13 15 16 15 14 14 14 14 14 14 14 13 13 12 12 12 11 10 9 9 8 9 8 8 8 8 8 8 8 8 8 8 8 7 6 6 5 5 5 5 4 5 5 5 6 7 6
13 13 13 14 15 14 14 14 14 14 13 13 13 13 12 12 11 11 11 11 10 9 9 9 8 8 8 8 8 8 8 8 8 8 7 7 6 5 5 5 4 4 3 4 4 5 7 7 6
13 13 14 14 13 13 13 13 13 13 13 13 13 12 12 12 12 12 11 11 10 9 9 9 9 8 8 8 8 8 8 7 7 7 7 7 6 5 4 4 3 3 3 3 4 5 6 6 6
12 12 14 12 12 12 12 12 12 12 13 13 13 12 12 12 12 11 12 11 10 9 10 10 9 8 8 7 7 7 7 7 7 6 6 6 5 4 4 3 3 2 3 3 3 4 5 5 5
11 12 12 11 11 11 11 11 11 12 12 12 12 12 12 12 11 11 11 11 10 9 9 9 9 8 7 7 7 6 6 6 6 5 5 5 4 4 3 3 2 1 1 2 3 3 4 5 5
10 11 11 10 10 10 10 10 12 12 12 12 12 11 11 11 11 10 10 10 10 9 8 8 8 8 7 6 6 5 5 5 5 5 4 4 3 2 2 2 1 1 0 1 2 2 3 4 5
10 11 9 9 10 10 10 10 10 11 11 11 11 11 11 11 11 10 10 10 10 9 8 8 7 7 7 6 6 5 5 4 4 4 4 3 2 2 1 1 1 0 0 0 1 2 2 3 4
8 9 7 8 8 9 9 10 10 10 10 10 11 10 10 10 10 10 10 10 10 9 9 8 7 7 7 6 6 5 5 4 4 4 4 3 3 2 2 2 1 1 1 1 1 1 2 3 4
6 7 6 7 7 8 9 9 9 9 9 10 11 10 9 9 10 10 10 10 9 9 9 8 8 7 6 6 6 6 5 4 3 3 4 3 3 2 2 2 2 1 2 1 1 2 3 4 5
6 6 6 6 6 7 8 8 8 8 9 9 10 10 9 9 9 9 9 9 9 9 8 8 8 7 7 7 6 6 6 5 3 3 4 4 3 2 2 1 2 2 2 2 2 2 3 4 5
5 6 6 6 6 6 7 7 8 8 8 8 9 9 9 9 8 9 8 9 8 8 8 7 7 7 7 6 6 6 6 5 4 2 2 3 3 2 1 0 1 1 1 2 2 3 3 4 5
4 5 5 5 5 6 7 7 7 7 6 7 7 8 8 8 8 8 8 8 9 8 7 7 6 7 7 6 6 6 5 5 5 4 3 3 3 3 2 2 2 2 2 3 3 4 5 6 6
3 3 3 3 4 5 5 6 6 6 6 6 6 7 7 7 7 7 8 8 8 7 7 7 6 6 6 5 5 5 5 5 5 5 4 4 4 4 3 2 3 2 3 4 5 5 6 7 7
2 1 1 1 2 3 4 4 5 4 5 5 5 6 6 6 6 6 7 7 7 7 6 6 6 6 6 6 5 5 5 5 5 6 5 4 4 4 4 3 4 3 4 5 5 6 6 6 6
2 1 1 1 1 1 2 3 2 2 3 4 4 4 5 5 4 5 5 5 6 6 6 6 6 6 6 6 5 5 6 6 6 6 6 6 5 5 4 3 3 5 5 5 5 6 5 5 5
4 3 2 2 2 2 2 1 1 1 1 2 3 3 4 4 4 4 4 4 5 6 6 6 5 5 5 5 5 5 5 6 6 6 7 7 6 6 5 4 4 5 5 6 6 6 5 5 5
7 5 4 4 4 3 3 2 2 1 1 1 2 3 4 4 4 4 4 4 5 5 5 5 6 6 5 6 6 6 6 6 6 7 8 7 7 6 5 5 5 5 6 6 6 6 6 6 6
9 8 7 6 5 5 5 4 3 3 2 2 3 4 5 6 6 6 5 5 5 5 6 6 7 7 7 7 7 6 6 6 7 7 9 7 7 7 6 6 6 6 6 7 7 7 7 6 6
9 9 9 9 8 6 6 5 5 4 4 4 3 4 5 6 7 6 6 6 6 6 7 7 7 8 8 8 8 7 7 7 7 7 8 7 7 7 8 7 7 7 7 8 8 8 8 7 7
11 10 10 10 9 8 7 6 6 6 6 6 5 5 5 6 7 7 7 7 7 7 7 8 9 9 9 9 9 9 8 8 8 8 8 8 8 9 10 8 8 8 9 9 9 9 9 9 9
12 12 12 11 10 9 9 7 8 8 7 7 7 7 7 7 7 8 8 8 8 8 8 8 8 9 9 10 11 11 10 10 9 9 10 9 9 10 10 9 9 10 10 11 11 11 11 11 11
14 13 13 13 12 11 10 8 8 9 9 8 8 9 9 9 9 10 9 9 9 10 10 10 10 10 10 11 11 11 11 11 11 11 11 11 10 11 10 10 11 11 12 12 12 13 13 12 13
16 15 14 14 13 14 13 11 11 11 10 10 10 10 10 10 11 11 11 10 10 10 11 11 11 11 11 11 11 12 12 12 12 13 13 12 12 12 12 12 13 13 14 14 14 15 14 14 14
18 16 15 15 15 16 15 14 13 12 12 12 11 11 11 11 12 12 12 11 11 11 12 13 13 14 13 13 13 14 14 13 13 14 15 14 14 14 13 14 14 15 16 16 16 16 16 16 16
18 17 17 16 16 17 17 16 15 14 13 13 13 12 12 12 12 12 13 13 13 14 14 14 14 14 15 15 15 15 16 16 16 16 16 16 15 15 15 15 15 16 17 18 18 17 17 18 18
20 19 18 17 17 17 17 17 16 15 14 14 13 14 14 14 14 14 14 15 15 15 15 16 15 16 16 16 16 16 17 18 19 18 18 18 18 17 17 17 17 18 18 19 19 19 19 19 19
20 19 18 18 18 17 18 17 17 15 14 14 14 15 15 15 16 16 16 15 16 16 16 17 17 17 17 18 18 18 19 20 20 18 18 19 18 18 18 19 20 20 21 21 21 21 21 21 22
22 21 21 20 20 18 17 18 17 16 16 15 15 15 15 16 17 17 17 17 17 18 18 19 19 19 18 19 19 20 20 21 20 19 19 20 20 20 20 21 22 22 22 23 23 22 23 23 23
22 22 21 21 21 20 19 20 18 17 16 16 16 17 17 17 18 18 18 18 18 19 20 21 21 20 20 20 20 21 22 22 22 21 21 22 22 22 22 22 23 23 24 24 24 24 25 25 25
Wind_Direction
81 77 75 79 79 76 79 80 80 82 84 84 82 81 80 78 80 83 85 87 94 101 107 104 105 104 102 101 100 99 97 102 106 111 121 124 128 126 125 129 132 138 137 149 161 169 180 190 185
83 78 77 80 80 81 81 80 79 79 81 82 81 78 78 78 77 78 80 83 90 99 105 103 104 104 102 100 100 99 98 98 102 106 108 116 120 119 122 128 128 130 134 143 164 175 177 176 177
86 81 83 81 82 87 86 82 80 79 79 80 80 78 76 75 76 75 76 79 88 96 102 100 101 102 100 98 96 97 97 97 99 105 106 111 115 118 121 124 128 133 139 150 159 173 174 168 167
83 85 82 80 84 87 85 84 81 79 76 77 77 77 75 74 74 74 74 78 88 94 98 95 95 97 100 97 94 92 93 93 94 99 106 110 115 117 117 112 118 130 125 141 161 167 171 170 175
87 89 82 83 86 86 83 82 79 78 76 75 75 75 73 73 74 74 74 77 85 93 94 91 90 92 96 96 94 91 90 89 89 93 100 102 106 114 118 110 118 124 134 137 153 175 180 186 182
87 88 90 90 88 83 81 80 78 78 76 74 75 76 75 75 75 75 75 75 79 83 88 86 87 87 89 88 93 88 84 82 84 89 95 102 104 107 116 132 130 95 121 146 165 180 193 197 191
84 92 91 89 86 83 81 80 81 79 77 75 75 75 75 75 76 77 76 73 77 83 84 84 86 86 86 85 87 84 82 78 78 82 86 92 99 104 116 133 148 43 23 172 175 179 200 202 198
85 89 85 84 82 81 79 78 78 78 78 76 74 73 73 75 77 76 75 72 74 78 78 78 81 84 81 80 77 73 73 71 67 69 75 78 85 86 84 80 103 81 17 234 211 224 239 221 214
85 86 89 89 80 74 75 76 78 77 76 73 70 71 71 72 75 73 73 71 71 72 74 74 76 77 76 76 76 73 70 70 68 66 68 68 70 66 59 66 82 51 3 3 302 244 262 242 234
85 90 88 86 77 69 72 76 78 74 71 68 65 65 67 68 71 72 71 72 72 72 72 71 73 73 75 74 71 68 63 67 79 74 67 62 60 57 58 67 67 23 14 350 290 254 260 250 245
89 91 91 84 76 71 71 78 80 75 69 67 62 61 64 65 69 71 69 67 70 73 69 70 69 67 69 68 66 62 56 54 72 75 62 65 67 57 45 77 44 9 355 338 298 295 272 255 252
92 87 84 80 74 72 76 80 79 74 69 68 64 62 62 63 64 66 64 63 63 63 65 68 67 65 61 60 62 59 53 53 55 52 38 39 55 53 46 37 360 359 353 339 318 304 289 269 260
103 90 80 75 69 68 74 80 76 70 64 66 64 61 63 62 62 62 63 62 60 58 59 58 54 51 46 48 54 54 48 43 42 43 28 13 9 356 345 326 324 322 321 317 313 300 288 284 281
116 94 75 66 69 76 71 68 69 67 61 62 57 54 60 57 58 59 59 56 55 56 55 49 45 44 36 35 45 44 35 31 28 23 21 11 354 349 341 319 318 316 310 309 302 299 294 293 287
159 114 72 39 50 72 67 57 55 63 58 57 50 48 50 48 52 54 51 50 47 44 43 37 32 33 29 28 32 33 25 23 20 18 17 7 351 344 341 321 315 320 314 311 303 297 300 292 284
196 192 263 289 333 25 50 47 42 55 55 48 40 34 35 37 40 39 40 39 38 32 27 22 19 20 21 20 19 15 15 12 11 7 359 353 341 327 336 347 335 328 319 320 319 314 302 293 285
227 235 246 257 277 283 307 329 336 25 33 25 19 21 22 18 17 18 17 15 16 16 12 9 10 8 8 4 358 358 2 4 1 356 349 345 337 333 329 341 342 337 332 327 322 328 315 298 292
231 236 244 254 263 272 285 282 278 259 304 331 1 7 6 6 2 354 347 351 358 2 1 357 356 355 351 346 342 343 347 351 352 347 343 337 339 333 328 344 338 332 330 326 325 325 318 307 299
232 235 244 250 256 270 275 267 269 267 277 312 332 339 345 349 350 344 337 343 354 356 349 342 339 338 337 337 333 332 336 339 342 340 342 338 339 331 324 336 335 330 329 328 328 325 319 310 305
238 240 248 255 261 265 273 263 264 277 285 297 305 313 322 332 340 338 329 336 335 336 335 331 325 323 323 325 323 319 323 329 334 336 338 339 332 328 323 316 320 322 320 320 324 323 319 317 315
239 242 247 257 262 265 273 270 269 275 281 283 289 290 302 314 321 321 319 321 326 325 323 323 318 315 316 316 315 311 315 318 317 318 321 324 317 315 312 305 310 314 315 313 313 312 309 308 305
241 242 247 257 263 266 264 260 266 271 278 281 283 287 290 299 306 310 310 311 316 317 320 324 322 316 311 310 310 307 307 312 311 311 311 312 310 308 304 302 305 304 305 308 307 309 306 303 300
242 244 247 256 260 263 265 262 263 272 279 282 285 288 288 293 295 299 302 300 303 308 311 315 320 320 313 309 310 309 304 304 306 306 305 305 302 303 298 298 298 299 301 302 302 304 304 301 299
245 247 254 259 259 262 265 267 266 273 276 278 281 279 282 287 292 294 296 297 296 300 305 308 312 314 313 312 311 310 306 300 299 298 299 300 297 296 292 290 292 293 295 296 297 299 299 298 295
245 247 252 259 259 261 266 268 265 271 273 276 278 279 279 285 291 295 294 295 294 293 299 303 308 308 307 305 306 306 306 302 296 296 297 296 293 293 290 290 292 290 291 294 297 295 295 294 293
246 245 246 251 257 264 267 268 270 273 276 277 278 279 279 281 286 291 291 293 294 290 293 299 303 303 302 300 302 301 302 302 299 297 296 293 291 291 291 290 291 290 291 293 294 293 291 290 290
245 245 247 253 257 260 264 268 269 271 276 277 275 278 277 277 281 287 289 290 292 291 291 293 294 297 298 299 299 299 297 298 297 297 297 296 291 289 290 290 289 289 290 290 291 291 290 290 289
244 247 249 250 253 257 263 268 270 272 271 273 274 275 274 274 279 284 288 290 291 290 289 291 296 299 297 298 298 297 295 294 295 297 297 297 293 291 291 290 289 288 288 287 287 288 289 288 288
246 247 248 250 250 253 260 264 268 270 270 270 270 269 270 272 276 278 282 285 287 286 286 290 294 295 296 297 297 297 297 295 293 293 292 292 292 292 292 291 290 289 288 287 287 287 288 288 288
246 247 249 250 254 255 257 263 267 268 267 268 268 268 269 270 274 275 276 281 283 284 285 288 292 292 292 293 294 296 297 294 291 293 290 291 292 291 292 291 291 290 288 287 286 286 286 287 287
Height
5908 5907 5907 5907 5908 5908 5907 5906 5905 5904 5903 5902 5901 5900 5899 5899 5899 5900 5897 5894 5894 5894 5893 5893 5893 5892 5892 5891 5891 5891 5890 5890 5890 5890 5890 5890 5890 5890 5890 5891 5891 5891 5892 5892 5892 5892 5893 5893 5894
5910 5910 5910 5910 5910 5910 5909 5908 5907 5906 5905 5903 5902 5902 5901 5900 5899 5898 5897 5896 5895 5895 5894 5894 5894 5894 5893 5893 5892 5892 5892 5891 5891 5891 5890 5890 5890 5890 5891 5891 5891 5892 5892 5892 5892 5892 5893 5893 5894
5912 5912 5912 5912 5912 5912 5911 5910 5908 5907 5906 5905 5904 5904 5903 5902 5901 5899 5898 5897 5896 5896 5895 5895 5895 5895 5895 5894 5894 5893 5893 5892 5892 5892 5891 5891 5891 5891 5891 5891 5892 5892 5891 5891 5892 5892 5892 5893 5894
5914 5914 5914 5915 5914 5913 5912 5911 5910 5909 5908 5907 5906 5905 5904 5903 5902 5901 5899 5898 5897 5897 5897 5896 5896 5896 5896 5895 5895 5894 5894 5893 5893 5892 5892 5892 5891 5891 5892 5892 5891 5891 5892 5892 5892 5892 5892 5893 5894
5916 5916 5917 5917 5916 5915 5914 5912 5911 5910 5909 5908 5908 5906 5905 5905 5903 5902 5901 5899 5899 5898 5898 5897 5897 5897 5897 5896 5896 5895 5895 5894 5894 5893 5893 5893 5892 5892 5892 5892 5892 5892 5892 5891 5891 5892 5892 5893 5894
5918 5918 5920 5918 5917 5916 5915 5914 5913 5912 5911 5910 5909 5908 5907 5906 5905 5904 5902 5901 5900 5899 5899 5899 5899 5899 5898 5897 5897 5896 5896 5895 5895 5894 5894 5893 5893 5893 5893 5892 5892 5892 5892 5891 5892 5892 5892 5893 5894
5920 5920 5920 5920 5919 5918 5917 5915 5914 5913 5912 5912 5911 5910 5908 5907 5906 5905 5904 5903 5901 5901 5901 5901 5900 5900 5899 5898 5898 5897 5897 5896 5895 5895 5894 5894 5894 5893 5893 5892 5892 5892 5891 5891 5891 5892 5892 5892 5893
5922 5923 5922 5922 5921 5920 5918 5917 5916 5915 5914 5914 5913 5912 5910 5909 5908 5907 5906 5905 5904 5903 5903 5902 5902 5901 5900 5899 5899 5898 5897 5897 5896 5895 5895 5894 5894 5893 5893 5892 5892 5892 5891 5891 5891 5891 5892 5892 5892
5924 5926 5924 5923 5922 5921 5920 5919 5918 5917 5916 5915 5914 5913 5912 5911 5909 5908 5907 5907 5906 5905 5904 5904 5903 5902 5901 5900 5899 5899 5898 5897 5896 5896 5895 5894 5894 5893 5893 5892 5892 5892 5892 5891 5891 5891 5891 5891 5892
5925 5926 5925 5924 5923 5922 5921 5920 5920 5919 5918 5917 5916 5915 5914 5912 5911 5910 5909 5908 5907 5906 5906 5905 5904 5903 5902 5901 5900 5899 5898 5897 5897 5896 5895 5894 5894 5893 5893 5892 5892 5892 5891 5891 5891 5890 5891 5891 5891
5926 5926 5926 5925 5924 5924 5923 5922 5921 5920 5920 5919 5917 5916 5915 5914 5913 5911 5911 5910 5909 5908 5907 5906 5905 5904 5903 5902 5901 5900 5899 5898 5897 5896 5895 5895 5894 5893 5893 5892 5892 5892 5891 5891 5890 5890 5890 5890 5890
5927 5927 5927 5926 5926 5925 5924 5923 5923 5922 5921 5920 5919 5917 5916 5915 5914 5913 5912 5911 5910 5909 5908 5907 5906 5905 5904 5903 5902 5901 5899 5898 5897 5896 5896 5895 5894 5893 5893 5892 5892 5891 5891 5890 5890 5889 5888 5888 5888
5928 5928 5928 5927 5927 5926 5925 5925 5924 5923 5922 5921 5920 5919 5917 5916 5915 5914 5913 5912 5911 5910 5909 5908 5907 5906 5905 5904 5903 5901 5900 5899 5898 5897 5896 5895 5894 5893 5892 5892 5891 5891 5890 5889 5889 5888 5887 5887 5886
5929 5929 5929 5928 5928 5927 5926 5926 5925 5924 5923 5922 5921 5920 5918 5917 5917 5916 5915 5914 5912 5911 5910 5909 5908 5907 5905 5904 5903 5902 5900 5899 5898 5897 5896 5895 5894 5893 5892 5891 5890 5890 5889 5888 5887 5887 5886 5885 5885
5929 5930 5930 5929 5928 5928 5928 5927 5926 5925 5924 5923 5922 5921 5920 5918 5917 5917 5916 5914 5913 5912 5911 5910 5908 5907 5906 5904 5903 5902 5901 5900 5899 5897 5896 5895 5894 5893 5891 5890 5890 5889 5888 5887 5886 5885 5884 5883 5883
5930 5930 5931 5930 5929 5928 5930 5929 5927 5926 5925 5924 5923 5922 5920 5919 5918 5917 5916 5915 5914 5913 5912 5910 5909 5908 5906 5905 5903 5902 5901 5900 5899 5897 5896 5894 5893 5892 5891 5890 5889 5888 5887 5886 5885 5884 5882 5882 5881
5930 5931 5931 5930 5929 5928 5928 5928 5927 5926 5925 5924 5923 5922 5921 5920 5918 5917 5917 5916 5914 5913 5912 5910 5909 5908 5906 5905 5904 5902 5901 5900 5898 5896 5895 5894 5892 5891 5890 5889 5888 5887 5886 5885 5884 5882 5881 5880 5879
5929 5930 5930 5929 5929 5928 5928 5927 5927 5926 5925 5924 5923 5922 5921 5920 5919 5918 5917 5916 5914 5913 5912 5911 5909 5908 5906 5905 5904 5902 5901 5899 5898 5896 5895 5893 5891 5890 5889 5889 5888 5886 5885 5884 5883 5881 5880 5879 5878
5927 5928 5928 5928 5928 5928 5927 5927 5926 5926 5925 5924 5923 5922 5921 5920 5919 5917 5916 5915 5914 5913 5912 5910 5909 5907 5906 5904 5903 5902 5900 5899 5897 5895 5893 5891 5891 5890 5889 5888 5886 5885 5884 5883 5882 5880 5879 5878 5877
5924 5926 5927 5927 5926 5927 5926 5926 5925 5925 5924 5924 5923 5921 5920 5919 5918 5917 5916 5915 5914 5912 5911 5909 5908 5906 5905 5904 5902 5901 5899 5898 5896 5895 5893 5892 5891 5889 5888 5887 5886 5884 5883 5882 5881 5879 5878 5877 5876
5922 5924 5924 5924 5925 5925 5926 5925 5925 5924 5923 5923 5922 5921 5920 5919 5917 5916 5915 5914 5913 5912 5910 5908 5907 5905 5904 5902 5901 5899 5898 5896 5895 5894 5892 5891 5890 5888 5887 5886 5884 5883 5882 5880 5879 5878 5877 5875 5874
5920 5921 5921 5922 5923 5924 5924 5925 5924 5922 5922 5921 5920 5919 5918 5917 5917 5915 5914 5913 5912 5910 5909 5907 5905 5904 5902 5901 5899 5897 5896 5895 5893 5892 5890 5889 5888 5886 5885 5884 5882 5881 5880 5878 5877 5875 5874 5873 5872
5917 5917 5918 5919 5920 5921 5921 5922 5923 5921 5920 5920 5919 5918 5917 5916 5915 5914 5913 5912 5910 5909 5907 5906 5904 5902 5901 5899 5897 5896 5894 5893 5891 5890 5888 5887 5885 5884 5883 5881 5880 5879 5877 5876 5875 5873 5872 5871 5869
5913 5914 5915 5916 5918 5919 5919 5920 5920 5919 5918 5917 5916 5916 5915 5914 5913 5912 5911 5910 5908 5907 5906 5904 5902 5901 5899 5897 5895 5894 5892 5890 5889 5888 5886 5885 5883 5882 5880 5879 5877 5876 5874 5873 5872 5870 5869 5868 5866
5909 5912 5914 5915 5916 5916 5916 5916 5917 5916 5915 5914 5914 5913 5912 5912 5911 5910 5908 5907 5906 5905 5903 5902 5900 5899 5897 5895 5893 5891 5890 5887 5886 5885 5883 5882 5880 5879 5877 5876 5874 5872 5871 5870 5868 5867 5866 5864 5863
5906 5908 5911 5913 5914 5913 5912 5912 5913 5912 5911 5910 5910 5910 5909 5909 5908 5907 5905 5904 5903 5902 5901 5899 5897 5896 5894 5892 5890 5888 5887 5885 5883 5881 5880 5878 5877 5875 5873 5872 5870 5869 5867 5866 5864 5863 5861 5860 5858
5901 5903 5905 5907 5907 5909 5909 5908 5908 5907 5907 5907 5906 5906 5906 5905 5904 5904 5902 5901 5900 5898 5897 5896 5894 5892 5891 5889 5887 5885 5883 5881 5879 5877 5876 5874 5873 5871 5870 5868 5866 5865 5863 5861 5859 5858 5856 5855 5853
5896 5898 5900 5902 5903 5904 5905 5904 5904 5903 5903 5903 5903 5902 5902 5901 5901 5900 5898 5897 5896 5894 5893 5892 5890 5889 5887 5885 5883 5881 5879 5877 5875 5873 5871 5870 5868 5867 5865 5863 5861 5860 5858 5856 5854 5853 5851 5849 5848
5892 5894 5895 5897 5898 5900 5901 5903 5900 5899 5899 5899 5898 5898 5898 5897 5897 5896 5894 5893 5892 5891 5889 5888 5886 5884 5883 5881 5879 5877 5875 5873 5871 5869 5867 5865 5863 5862 5860 5858 5856 5854 5852 5850 5848 5847 5845 5843 5842
5887 5888 5890 5892 5892 5893 5895 5898 5894 5894 5894 5894 5894 5893 5893 5893 5892 5891 5890 5889 5888 5886 5885 5883 5881 5880 5878 5876 5874 5872 5870 5868 5866 5864 5862 5860 5858 5856 5854 5852 5850 5848 5846 5844 5842 5840 5838 5837 5835